When you browse on this site, cookies collect data to enhance your experience and personalize the content and advertising you see.
Visit our Privacy Policy to learn more. By continuing to use the site, you agree to this use of cookies and data.

Tiempo cada hora Recife

Hoy, 18 Septiembre, Viernes

Tiempo Temperatura Precipitaciones Viento Presión Humedad
00:00 +24°C° 0 mm 3 mps 759 mmHg 82%
01:00 +24°C° 0 mm 2 mps 759 mmHg 84%
02:00 +24°C° 0 mm 2 mps 759 mmHg 85%
03:00 +23°C° 0 mm 2 mps 759 mmHg 87%
04:00 +23°C° 0 mm 2 mps 758 mmHg 88%
05:00 +23°C° 0 mm 2 mps 759 mmHg 87%
06:00 +24°C° 0 mm 2 mps 759 mmHg 87%
07:00 +24°C° 0 mm 2 mps 759 mmHg 86%
08:00 +25°C° 0 mm 2 mps 760 mmHg 79%
09:00 +27°C° 0 mm 2 mps 760 mmHg 73%
10:00 +29°C° 0 mm 2 mps 760 mmHg 66%
11:00 +29°C° 0.1 mm 3 mps 760 mmHg 65%
12:00 +29°C° 0.1 mm 3 mps 759 mmHg 64%
13:00 +30°C° 0.1 mm 4 mps 759 mmHg 63%
14:00 +29°C° 0.1 mm 4 mps 758 mmHg 64%
15:00 +29°C° 0.1 mm 5 mps 758 mmHg 66%
16:00 +29°C° 0.1 mm 5 mps 758 mmHg 67%
17:00 +28°C° 0 mm 5 mps 758 mmHg 72%
18:00 +27°C° 0 mm 5 mps 758 mmHg 77%
19:00 +26°C° 0 mm 5 mps 759 mmHg 81%
20:00 +26°C° 0 mm 4 mps 759 mmHg 81%
21:00 +25°C° 0 mm 4 mps 759 mmHg 81%
22:00 +25°C° 0 mm 4 mps 760 mmHg 82%
23:00 +25°C° 0.1 mm 4 mps 760 mmHg 83%

Mañana, 19 Septiembre, Sábado

Tiempo Temperatura Precipitaciones Viento Presión Humedad
00:00 +25°C° 0.1 mm 3 mps 759 mmHg 84%
01:00 +25°C° 0.1 mm 3 mps 759 mmHg 85%
02:00 +25°C° 0.2 mm 3 mps 759 mmHg 85%
03:00 +25°C° 0.2 mm 4 mps 759 mmHg 86%
04:00 +25°C° 0.2 mm 4 mps 758 mmHg 86%
05:00 +25°C° 0.1 mm 4 mps 759 mmHg 85%
06:00 +25°C° 0.1 mm 4 mps 759 mmHg 84%
07:00 +25°C° 0.1 mm 4 mps 759 mmHg 84%
08:00 +27°C° 0 mm 4 mps 760 mmHg 78%
09:00 +28°C° 0 mm 4 mps 760 mmHg 72%
10:00 +29°C° 0 mm 4 mps 761 mmHg 66%
11:00 +29°C° 0 mm 4 mps 760 mmHg 63%
12:00 +30°C° 0 mm 4 mps 760 mmHg 60%
13:00 +30°C° 0 mm 4 mps 759 mmHg 57%
14:00 +30°C° 0 mm 4 mps 759 mmHg 59%
15:00 +30°C° 0 mm 4 mps 759 mmHg 61%
16:00 +29°C° 0 mm 3 mps 758 mmHg 63%
17:00 +28°C° 0 mm 3 mps 758 mmHg 68%
18:00 +27°C° 0 mm 3 mps 759 mmHg 73%
19:00 +26°C° 0 mm 3 mps 759 mmHg 78%
20:00 +26°C° 0 mm 4 mps 759 mmHg 80%
21:00 +26°C° 0 mm 4 mps 760 mmHg 83%
22:00 +26°C° 0 mm 4 mps 760 mmHg 86%
23:00 +25°C° 0.1 mm 4 mps 760 mmHg 87%

Pasado mañana, 20 Septiembre, Domingo

Tiempo Temperatura Precipitaciones Viento Presión Humedad
00:00 +25°C° 0.1 mm 3 mps 759 mmHg 88%
01:00 +25°C° 0.1 mm 3 mps 759 mmHg 90%
02:00 +25°C° 0.1 mm 3 mps 759 mmHg 89%
03:00 +25°C° 0.1 mm 2 mps 758 mmHg 89%
04:00 +25°C° 0.1 mm 2 mps 758 mmHg 89%
05:00 +25°C° 0.2 mm 2 mps 758 mmHg 88%
06:00 +26°C° 0.2 mm 2 mps 759 mmHg 88%
07:00 +26°C° 0.2 mm 3 mps 759 mmHg 87%
08:00 +27°C° 0.3 mm 3 mps 759 mmHg 84%
09:00 +28°C° 0.3 mm 4 mps 760 mmHg 80%
10:00 +28°C° 0.3 mm 5 mps 760 mmHg 76%
11:00 +29°C° 0.1 mm 5 mps 759 mmHg 72%
12:00 +29°C° 0.1 mm 4 mps 759 mmHg 68%
13:00 +30°C° 0.1 mm 4 mps 758 mmHg 64%
14:00 +30°C° 0 mm 5 mps 758 mmHg 65%
15:00 +30°C° 0 mm 5 mps 758 mmHg 65%
16:00 +30°C° 0 mm 5 mps 758 mmHg 65%
17:00 +29°C° 0 mm 4 mps 758 mmHg 70%
18:00 +28°C° 0 mm 4 mps 758 mmHg 75%
19:00 +26°C° 0 mm 4 mps 759 mmHg 80%
20:00 +26°C° 0 mm 4 mps 759 mmHg 81%
21:00 +26°C° 0 mm 4 mps 759 mmHg 82%
22:00 +26°C° 0 mm 4 mps 759 mmHg 83%
23:00 +26°C° 0 mm 4 mps 759 mmHg 84%

21 Septiembre, Lunes

Tiempo Temperatura Precipitaciones Viento Presión Humedad
00:00 +26°C° 0 mm 4 mps 759 mmHg 85%
01:00 +25°C° 0 mm 3 mps 759 mmHg 87%
02:00 +25°C° 0.2 mm 3 mps 758 mmHg 87%
03:00 +25°C° 0.2 mm 3 mps 758 mmHg 87%
04:00 +25°C° 0.2 mm 4 mps 758 mmHg 87%
05:00 +26°C° 0.1 mm 4 mps 758 mmHg 87%
06:00 +26°C° 0.1 mm 4 mps 759 mmHg 86%
07:00 +26°C° 0.1 mm 4 mps 759 mmHg 86%
08:00 +27°C° 0.1 mm 4 mps 760 mmHg 79%
09:00 +28°C° 0.1 mm 5 mps 760 mmHg 73%
10:00 +30°C° 0.1 mm 5 mps 760 mmHg 67%
11:00 +30°C° 0 mm 5 mps 760 mmHg 64%
12:00 +32°C° 0 mm 5 mps 759 mmHg 62%
13:00 +32°C° 0 mm 5 mps 759 mmHg 59%
14:00 +32°C° 0 mm 5 mps 759 mmHg 60%
15:00 +30°C° 0 mm 5 mps 758 mmHg 62%
16:00 +30°C° 0 mm 5 mps 758 mmHg 63%
17:00 +29°C° 0 mm 4 mps 758 mmHg 68%
18:00 +28°C° 0 mm 4 mps 759 mmHg 73%
19:00 +27°C° 0 mm 3 mps 759 mmHg 78%
20:00 +26°C° 0.1 mm 4 mps 759 mmHg 80%
21:00 +26°C° 0.1 mm 4 mps 760 mmHg 82%
22:00 +26°C° 0.1 mm 4 mps 760 mmHg 84%
23:00 +26°C° 0 mm 4 mps 760 mmHg 84%

22 Septiembre, Martes

Tiempo Temperatura Precipitaciones Viento Presión Humedad
00:00 +26°C° 0 mm 4 mps 760 mmHg 85%
01:00 +26°C° 0 mm 5 mps 759 mmHg 85%
02:00 +26°C° 0.1 mm 5 mps 759 mmHg 86%
03:00 +26°C° 0.1 mm 4 mps 759 mmHg 86%
04:00 +25°C° 0.1 mm 4 mps 759 mmHg 87%
05:00 +26°C° 0 mm 4 mps 759 mmHg 86%
06:00 +26°C° 0 mm 4 mps 759 mmHg 85%
07:00 +26°C° 0 mm 4 mps 760 mmHg 84%
08:00 +27°C° 0 mm 4 mps 760 mmHg 77%
09:00 +28°C° 0 mm 5 mps 761 mmHg 71%
10:00 +30°C° 0 mm 5 mps 761 mmHg 64%
11:00 +30°C° 0 mm 5 mps 761 mmHg 61%
12:00 +32°C° 0 mm 4 mps 760 mmHg 58%
13:00 +32°C° 0 mm 4 mps 760 mmHg 55%
14:00 +32°C° 0 mm 4 mps 760 mmHg 59%
15:00 +30°C° 0 mm 5 mps 759 mmHg 62%
16:00 +30°C° 0 mm 5 mps 759 mmHg 65%
17:00 +29°C° 0.2 mm 5 mps 759 mmHg 72%
18:00 +27°C° 0.2 mm 4 mps 760 mmHg 78%
19:00 +26°C° 0.2 mm 4 mps 760 mmHg 85%
20:00 +26°C° 0.2 mm 4 mps 761 mmHg 86%
21:00 +26°C° 0.2 mm 4 mps 761 mmHg 87%
22:00 +26°C° 0.2 mm 4 mps 761 mmHg 88%
23:00 +26°C° 0.2 mm 4 mps 761 mmHg 88%

23 Septiembre, Miércoles

Tiempo Temperatura Precipitaciones Viento Presión Humedad
00:00 +25°C° 0.2 mm 4 mps 761 mmHg 87%
01:00 +25°C° 0.2 mm 4 mps 760 mmHg 87%
02:00 +25°C° 0.1 mm 4 mps 760 mmHg 87%
03:00 +25°C° 0.1 mm 4 mps 760 mmHg 87%
04:00 +25°C° 0.1 mm 4 mps 759 mmHg 86%
05:00 +25°C° 0.1 mm 4 mps 760 mmHg 85%
06:00 +25°C° 0.1 mm 4 mps 760 mmHg 83%
07:00 +25°C° 0.1 mm 3 mps 761 mmHg 81%
08:00 +27°C° 0.2 mm 4 mps 761 mmHg 77%
09:00 +28°C° 0.2 mm 4 mps 761 mmHg 72%
10:00 +29°C° 0.2 mm 5 mps 762 mmHg 68%
11:00 +29°C° 0.2 mm 5 mps 761 mmHg 67%
12:00 +29°C° 0.2 mm 5 mps 761 mmHg 66%
13:00 +30°C° 0.2 mm 5 mps 760 mmHg 65%
14:00 +29°C° 0 mm 5 mps 760 mmHg 64%
15:00 +29°C° 0 mm 5 mps 759 mmHg 64%
16:00 +29°C° 0 mm 5 mps 759 mmHg 63%
17:00 +28°C° 0 mm 5 mps 759 mmHg 68%
18:00 +27°C° 0 mm 5 mps 760 mmHg 73%
19:00 +26°C° 0 mm 4 mps 760 mmHg 78%
20:00 +26°C° 0.1 mm 4 mps 760 mmHg 79%
21:00 +25°C° 0.1 mm 4 mps 761 mmHg 81%
22:00 +25°C° 0.1 mm 4 mps 761 mmHg 82%
23:00 +25°C° 0.1 mm 4 mps 761 mmHg 83%
Mostrar más